Location: Newark
(35.5300°N, 14.3000°E)
Time: 00:39:38
(UTC+00:00)

OTV 5 (USA 277) - Visible Passes

Search period start: 20 October 2019 00:00
Search period end: 30 October 2019 00:00
Orbit: 310 x 324 km, 54.5° (Epoch: 17 October)

Date Brightness Start Highest point End Pass type
(mag) Time Alt. Az. Time Alt. Az. Time Alt. Az.
20 Oct ? 03:34:08 16° NNE 03:34:44 17° NE 03:36:39 10° E visible
21 Oct ? 03:48:52 39° N 03:49:25 46° NE 03:52:04 10° ESE visible
22 Oct ? 04:03:45 42° WSW 04:03:56 43° SW 04:06:32 10° SSE visible
23 Oct ? 04:18:45 13° SW 04:18:45 13° SW 04:19:44 10° SSW visible
25 Oct ? 17:54:12 10° SSW 17:54:20 11° SSW 17:54:20 11° SSW visible
26 Oct ? 18:08:30 10° SW 18:09:16 17° WSW 18:09:16 17° WSW visible
27 Oct ? 16:49:37 10° S 16:51:37 19° SE 16:53:07 13° E visible
27 Oct ? 18:23:43 10° W 18:24:02 12° W 18:24:02 12° W visible
28 Oct ? 17:03:20 10° SW 17:06:01 67° SE 17:07:46 19° NE visible
29 Oct ? 17:18:05 10° WSW 17:20:35 32° NW 17:22:16 17° NNE visible
